[[{"header":{"parameterUnit":"m.s-1","parameterCategory":1,"la1":30.2992,"la2":30.254,"lo1":-89.0895,"lo2":-89.0443,"dy":0.0025,"dx":0.0025,"nx":19,"ny":19,"refTime":"2026-03-19T03:00:00:Z","depth":0,"parameterNumber":2,"parameterNumberName":"U-component_of_WINDS"},"data":[0,0,0,0.3204,0.3204,0.3171,0.3171,0.3134,0.3134,0,0,0,0,0,0,0,0,0,0,0,0.3218,0.3218,0.3204,0.3204,0.3171,0.3171,0.3134,0.3134,0,0,0,0,0,0,0,0,0,0,0,0.3218,0.3218,0.3218,0.3204,0.3171,0.3171,0.3134,0.3157,0,0,0,0,0,0,0,0,0,0,0.3187,0.3204,0.3218,0.3218,0.3203,0.3171,0.3171,0.3158,0.3155,0.3151,0,0.3149,0,0.3141,0.3132,0.3131,0,0,0,0.32,0.3206,0.3194,0.3218,0.3203,0.3171,0.3185,0.3156,0.3154,0.3148,0.3149,0.3147,0.314,0.3131,0.3131,0.3119,0.3119,0,0,0.3202,0.3214,0.3196,0.3192,0.3199,0.3186,0.3184,0.3155,0.3156,0.3148,0.3146,0.314,0.3131,0.3131,0.3119,0.3119,0,0,0,0.321,0.3215,0.3204,0.3194,0.3188,0.3185,0.3183,0.3157,0.3152,0.3146,0.3139,0.3131,0.3131,0.3118,0.3119,0.3134,0,0,0,0.3211,0.322,0.3205,0.3212,0.3189,0.3172,0.3186,0.3154,0.3151,0.3139,0.3131,0.313,0.3118,0.3118,0.3134,0.314,0,0,0,0.3219,0.3221,0.3217,0.3212,0.3199,0.3173,0.3166,0.3153,0.3147,0.3131,0.313,0.3118,0.3118,0.3133,0.3139,0.3139,0,0,0,0.3231,0.3232,0.3218,0.3217,0.3199,0.3183,0.3166,0.3153,0.3142,0.3131,0.3118,0.3119,0.3133,0.3138,0.3139,0.3142,0.3144,0,0,0.3239,0.3234,0.3232,0.3218,0.3208,0.3187,0.3178,0.3157,0.3144,0.3127,0.3127,0.3134,0.3139,0.3139,0.3155,0.3157,0,0,0,0.3238,0.3237,0.3232,0.3222,0.3206,0.3192,0.317,0.3162,0.3147,0.3138,0.3134,0.3137,0.3136,0.3137,0.3139,0.3137,0.312,0.312,0.312,0.3267,0.3251,0.3247,0.3227,0.3217,0.3194,0.3184,0.3169,0.3156,0.3155,0.315,0.3161,0.3163,0.3164,0.3163,0.315,0.3151,0.3151,0.3151,0.3277,0.3272,0.3255,0.3244,0.3227,0.3217,0.3195,0.3186,0.3173,0.3164,0.3163,0.3154,0.3167,0.3165,0.3152,0.3151,0.3151,0.3151,0.3151,0.3293,0.3288,0.3278,0.3262,0.325,0.3229,0.3218,0.3203,0.3188,0.3187,0.3179,0.3179,0.3176,0.3185,0.3185,0.3185,0.3185,0.3185,0.3185,0.3314,0.3302,0.3295,0.3278,0.3269,0.3255,0.3231,0.3221,0.3206,0.3196,0.3195,0.3182,0.3172,0.3169,0.3185,0.3185,0.3185,0.3185,0.3185,0.3329,0.3323,0.3312,0.3303,0.3281,0.327,0.325,0.3231,0.3221,0.3215,0.3201,0.3197,0.319,0.3188,0.3186,0.3206,0.3206,0.3206,0.3206,0.3342,0.3337,0.3322,0.3309,0.3294,0.3275,0.3262,0.3243,0.3222,0.3215,0.3209,0.3205,0.3204,0.3198,0.3196,0.3194,0.3215,0.3215,0.3215,0.335,0.3342,0.3335,0.3316,0.3297,0.328,0.3267,0.3251,0.3227,0.3215,0.3208,0.3207,0.32,0.3199,0.3187,0.3185,0.318,0,0]},{"header":{"parameterUnit":"m.s-1","parameterCategory":1,"la1":30.2992,"la2":30.254,"lo1":-89.0895,"lo2":-89.0443,"dy":0.0025,"dx":0.0025,"nx":19,"ny":19,"refTime":"2026-03-19T03:00:00:Z","depth":0,"parameterNumber":3,"parameterNumberName":"V-component_of_WINDS"},"data":[0,0,0,-2.3073,-2.3076,-2.3199,-2.32,-2.3352,-2.3353,0,0,0,0,0,0,0,0,0,0,0,-2.3033,-2.3034,-2.3073,-2.3076,-2.3199,-2.32,-2.3351,-2.3353,0,0,0,0,0,0,0,0,0,0,0,-2.3033,-2.3034,-2.3035,-2.3077,-2.3199,-2.32,-2.3351,-2.326,0,0,0,0,0,0,0,0,0,0,-2.3142,-2.3101,-2.3034,-2.3035,-2.3077,-2.3199,-2.32,-2.3256,-2.3266,-2.3293,0,-2.3317,0,-2.3337,-2.3363,-2.3363,0,0,0,-2.3079,-2.3092,-2.3129,-2.3035,-2.3078,-2.3199,-2.3145,-2.3262,-2.3273,-2.3306,-2.3319,-2.3325,-2.334,-2.3364,-2.3364,-2.3513,-2.3513,0,0,-2.3072,-2.3053,-2.3121,-2.3136,-2.3117,-2.3141,-2.3148,-2.3269,-2.3281,-2.3319,-2.3328,-2.3342,-2.3365,-2.3366,-2.3512,-2.3513,0,0,0,-2.3051,-2.3048,-2.3082,-2.313,-2.3152,-2.3144,-2.3153,-2.3275,-2.3288,-2.333,-2.3344,-2.3366,-2.3367,-2.3512,-2.3513,-2.3521,0,0,0,-2.3047,-2.3036,-2.3079,-2.3069,-2.315,-2.3215,-2.3157,-2.328,-2.3294,-2.3343,-2.3366,-2.3369,-2.3511,-2.3512,-2.352,-2.3528,0,0,0,-2.3026,-2.3034,-2.305,-2.3068,-2.312,-2.3214,-2.3234,-2.3283,-2.3302,-2.3363,-2.3369,-2.3511,-2.3512,-2.3519,-2.3526,-2.3561,0,0,0,-2.2999,-2.3057,-2.305,-2.312,-2.3119,-2.3219,-2.3233,-2.3308,-2.3362,-2.3366,-2.3511,-2.3513,-2.3518,-2.3525,-2.356,-2.3586,-2.3596,0,0,-2.3061,-2.3064,-2.3106,-2.3104,-2.32,-2.3201,-2.3299,-2.3366,-2.339,-2.347,-2.3474,-2.352,-2.3526,-2.3561,-2.3659,-2.3667,0,0,0,-2.3119,-2.315,-2.3179,-2.3229,-2.3282,-2.3328,-2.3382,-2.3407,-2.3476,-2.3427,-2.3544,-2.3548,-2.3569,-2.3583,-2.3589,-2.3608,-2.3518,-2.3518,-2.3518,-2.3179,-2.3206,-2.3278,-2.3319,-2.3368,-2.3423,-2.3465,-2.3508,-2.3521,-2.3548,-2.3572,-2.3628,-2.3644,-2.3649,-2.3668,-2.3589,-2.359,-2.359,-2.359,-2.3272,-2.3318,-2.3334,-2.341,-2.3438,-2.3501,-2.3557,-2.3564,-2.3628,-2.3613,-2.3633,-2.3612,-2.3656,-2.3674,-2.3591,-2.359,-2.359,-2.359,-2.359,-2.3313,-2.3339,-2.3369,-2.3444,-2.3499,-2.354,-2.36,-2.3624,-2.3647,-2.3667,-2.3694,-2.3694,-2.3695,-2.3678,-2.3678,-2.3679,-2.3679,-2.3679,-2.3679,-2.3343,-2.3376,-2.3423,-2.3484,-2.352,-2.3569,-2.3626,-2.3662,-2.3707,-2.3719,-2.372,-2.3729,-2.3656,-2.3636,-2.3682,-2.3682,-2.3681,-2.3681,-2.3681,-2.3424,-2.341,-2.3483,-2.3518,-2.3592,-2.3644,-2.3675,-2.3745,-2.3778,-2.3807,-2.3813,-2.3755,-2.3759,-2.3754,-2.3737,-2.3807,-2.3807,-2.3807,-2.3807,-2.3458,-2.3462,-2.3542,-2.3597,-2.3654,-2.3689,-2.377,-2.3815,-2.386,-2.3882,-2.3876,-2.3857,-2.3851,-2.3858,-2.3851,-2.3836,-2.3929,-2.3929,-2.393,-2.3509,-2.352,-2.3584,-2.3627,-2.3687,-2.3738,-2.3815,-2.3878,-2.3925,-2.3935,-2.3899,-2.3894,-2.3864,-2.3853,-2.386,-2.3848,-2.3821,0,0]}]]